FW5818 Weather Reports


Display with metric or nautical units.
time (UTC)temp
F
wind
direction
speed
MPH
gust
MPH
rain 1hr
in
rain 24hr
in
rain mn
in
humidity
%
barometer
mb
20260507010047 52 0 0.0 2.0 0.00 1.46 1.46 94 1015.1
20260507004546 52 0 1.0 4.0 0.00 1.46 1.46 94 1015.1
20260507003047 52 0 0.0 0.0 0.00 1.46 1.46 94 1015.7
20260507001543 53 0 0.0 1.0 0.00 1.46 1.46 94 1015.9
20260507000047 53 0 0.0 1.0 0.00 1.46 1.46 94 1016.2
20260506234557 52 94 0.0 1.0 0.00 1.46 1.46 94 1016.2
20260506233045 52 0 0.0 1.0 0.00 1.46 1.46 94 1016.2
20260506231548 52 0 0.0 2.0 0.00 1.46 1.46 94 1016.0
20260506230048 52 13 1.0 4.0 0.00 1.46 1.46 94 1015.7
20260506224550 52 0 0.0 2.0 0.00 1.46 1.46 94 1015.7
20260506223057 52 262 0.0 0.0 0.00 1.46 1.46 93 1015.7
20260506221545 52 0 0.0 4.0 0.00 1.46 1.46 93 1014.9
20260506220052 52 207 0.0 4.0 0.00 1.46 1.46 93 1015.2
20260506214544 52 268 1.0 6.0 0.00 1.46 1.46 93 1015.2
20260506213049 52 79 1.0 9.0 0.00 1.46 1.46 93 1015.1
20260506211549 51 58 2.0 7.0 0.00 1.46 1.46 94 1014.8
20260506210054 52 89 1.0 10.0 0.00 1.46 1.46 94 1015.3
20260506204559 51 73 4.0 15.0 0.00 1.46 1.46 95 1014.7
20260506203048 51 69 3.0 9.0 0.00 1.46 1.46 96 1014.8
20260506201553 51 49 1.0 10.0 0.01 1.46 1.46 96 1015.3
20260506200105 50 51 0.0 4.0 0.02 1.46 1.46 96 1015.1
20260506194550 50 74 0.0 5.0 0.05 1.46 1.46 96 1015.7
20260506193048 50 0 0.0 3.0 0.06 1.46 1.46 96 1016.5
20260506191547 50 0 0.0 3.0 0.06 1.45 1.45 96 1017.0
20260506190046 50 52 1.0 7.0 0.05 1.43 1.43 96 1016.7
20260506184544 49 0 0.0 5.0 0.04 1.41 1.41 95 1016.8
20260506183059 49 41 2.0 10.0 0.04 1.40 1.40 95 1016.2
20260506181553 49 0 0.0 7.0 0.04 1.39 1.39 95 1017.1
20260506180100 49 229 0.0 5.0 0.05 1.38 1.38 95 1017.5
20260506174546 49 0 0.0 2.0 0.04 1.38 1.37 94 1016.8
20260506173053 49 11 1.0 6.0 0.03 1.37 1.36 94 1017.2
20260506171547 50 255 1.0 6.0 0.02 1.36 1.35 94 1016.8
20260506170051 50 0 1.0 5.0 0.00 1.34 1.33 93 1016.0
20260506164551 50 256 2.0 9.0 0.00 1.35 1.33 93 1016.5
20260506163051 50 35 1.0 10.0 0.00 1.35 1.33 93 1016.7
20260506161556 50 66 2.0 11.0 0.00 1.35 1.33 94 1016.5
20260506160055 50 24 0.0 7.0 0.00 1.35 1.33 95 1016.0
20260506154554 50 0 2.0 7.0 0.00 1.37 1.33 96 1016.3
20260506153048 49 5 2.0 6.0 0.00 1.37 1.33 95 1016.2
20260506151602 49 0 1.0 7.0 0.00 1.37 1.33 96 1016.1
20260506150047 49 56 1.0 8.0 0.00 1.37 1.33 96 1016.3
20260506144545 48 27 0.0 7.0 0.00 1.40 1.33 96 1016.0
20260506143053 48 56 2.0 8.0 0.00 1.40 1.33 96 1016.0
20260506141549 48 63 0.0 7.0 0.00 1.40 1.33 96 1015.8
20260506140056 48 45 1.0 12.0 0.01 1.40 1.33 96 1015.7
20260506134547 48 98 1.0 11.0 0.02 1.42 1.33 96 1015.8
20260506133054 48 11 2.0 10.0 0.02 1.42 1.33 96 1015.7
20260506131552 48 61 1.0 9.0 0.11 1.42 1.33 96 1015.8
20260506124547 48 40 3.0 9.0 0.20 1.42 1.31 96 1014.8
20260506123050 48 61 1.0 12.0 0.43 1.41 1.30 96 1014.5
20260506121546 48 188 2.0 9.0 0.39 1.32 1.21 96 1015.2
20260506120048 49 14 1.0 4.0 0.38 1.25 1.14 96 1014.0
20260506114551 49 225 2.0 8.0 0.43 1.21 1.10 96 1013.7
20260506113048 49 42 2.0 14.0 0.25 0.97 0.86 96 1013.1
20260506111546 49 63 1.0 8.0 0.25 0.92 0.81 96 1012.4
20260506110100 49 0 1.0 10.0 0.20 0.87 0.76 96 1012.3
20260506104553 49 175 2.0 7.0 0.11 0.78 0.67 96 1012.4
20260506103049 50 269 2.0 7.0 0.04 0.71 0.60 96 1012.7
20260506101556 50 67 1.0 10.0 0.00 0.67 0.56 96 1011.5
20260506100046 50 269 1.0 4.0 0.00 0.67 0.56 96 1012.3
20260506094553 50 28 3.0 10.0 0.01 0.67 0.56 96 1011.9
20260506093047 50 67 3.0 12.0 0.08 0.67 0.56 96 1010.8
20260506091544 50 240 2.0 8.0 0.09 0.67 0.56 96 1011.5
20260506090047 50 217 3.0 11.0 0.09 0.67 0.56 95 1011.0
20260506084550 51 42 4.0 12.0 0.08 0.66 0.55 95 1010.4
20260506083047 51 360 3.0 16.0 0.02 0.58 0.48 95 1013.1
20260506081547 52 220 2.0 13.0 0.01 0.58 0.47 95 1010.9
20260506073048 53 12 3.0 13.0 0.42 0.57 0.46 95 1009.7
20260506071600 54 226 2.0 11.0 0.46 0.57 0.46 95 1009.1
20260506061547 61 17 4.0 12.0 0.00 0.11 0.00 92 1008.5
20260506044548 67 0 0.0 0.0 0.00 0.11 0.11 97 1007.2
20260506043047 67 0 0.0 0.0 0.00 0.11 0.11 97 1007.4
20260506041556 67 0 0.0 0.0 0.00 0.11 0.11 97 1007.6
20260506040049 67 0 0.0 0.0 0.00 0.11 0.11 97 1007.6
20260506034547 67 0 0.0 0.0 0.00 0.11 0.11 97 1007.0
20260506033043 67 0 0.0 0.0 0.00 0.11 0.11 97 1006.8
20260506031547 68 0 0.0 0.0 0.00 0.11 0.11 96 1007.3
20260506030046 68 0 0.0 0.0 0.00 0.11 0.11 97 1007.0
20260506024549 68 0 0.0 1.0 0.00 0.11 0.11 97 1007.7
20260506023044 68 0 0.0 1.0 0.00 0.11 0.11 96 1006.9
20260506021545 68 0 0.0 0.0 0.00 0.11 0.11 96 1007.0
20260506020043 68 0 0.0 0.0 0.00 0.11 0.11 96 1007.1
20260506014552 69 0 0.0 0.0 0.00 0.11 0.11 96 1007.1
20260506013046 69 0 0.0 1.0 0.00 0.11 0.11 96 1006.8
20260506011547 69 0 0.0 0.0 0.00 0.11 0.11 96 1006.8